Location: Unspecified
(0.0000°N, 0.0000°E)
Time: 19:03:33
(UTC+00:00)

Courier 1B - Pass Details

Date: 26 November 2019
Orbit: 963 x 1209 km, 28.3° (Epoch: 08 December)

Event Time Altitude Azimuth Distance (km) Brightness Sun altitude
Rises 13:14:18 0° 264° (W) 3,632 10.8 60.1°
Reaches altitude 10° 13:17:51 10° 246° (WSW) 2,697 10.5 59.5°
Maximum altitude 13:22:06 18° 204° (SSW) 2,194 10.2 58.8°
Drops below altitude 10° 13:26:27 10° 163° (SSE) 2,761 10.2 58.0°
Sets 13:30:10 0° 145° (SE) 3,754 10.6 57.3°
